Location: Saluda
(35.2377°N, 82.3468°W)
Time: 03:30:40
(UTC+00:00)

Vanguard 2 Rocket - Pass Details

Date: 06 October 2022
Orbit: 555 x 3321 km, 32.9° (Epoch: 05 December)

Event Time Altitude Azimuth Distance (km) Brightness Sun altitude
Rises 09:49:24 0° 274° (W) 4,198 - -20.9°
Reaches altitude 10° 09:54:23 10° 250° (WSW) 2,668 - -19.9°
Maximum altitude 09:57:05 13° 223° (SW) 2,178 - -19.4°
Exits shadow 09:58:56 11° 201° (SSW) 2,147 8.5 -19.0°
Drops below altitude 10° 09:59:23 10° 195° (SSW) 2,183 8.6 -18.9°
Sets 10:02:39 0° 165° (SSE) 2,858 9.6 -18.3°
